Regional Weather Roundup
Issued by NWS

Home | Current Version | Previous Version | Text Only | Print | Product List | Glossary Off
Versions: 1 2 3 4 5 6 7 8 9 10 11 12 13 14 15 16 17 18 19 20 21 22 23 24 25 26 27 28 29 30 31 32 33 34 35 36 37 38 39 40 41 42 43 44 45 46 47 48 49 50

000
ASUS43 KBIS 230802
RWRND

NORTH DAKOTA REGIONAL WEATHER ROUNDUP
NATIONAL WEATHER SERVICE BISMARCK ND
200 AM CST TUE JAN 23 2018

NOTE: "FAIR" INDICATES FEW OR NO CLOUDS BELOW 12,000 FEET WITH NO
SIGNIFICANT WEATHER AND/OR OBSTRUCTIONS TO VISIBILITY.


NDZ001>003-009>011-017-230900-
NORTHWEST NORTH DAKOTA

CITY           SKY/WX    TMP DP  RH WIND       PRES   REMARKS
WILLISTON      PTCLDY    21  15  78 SW10      29.99R WCI  10
MINOT          CLOUDY    13   9  84 SE6       29.95F WCI   4
MINOT AFB      CLEAR     10   7  87 S6        29.94F WCI   1
$$

NDZ018>021-031>035-040>046-230900-
SOUTHWEST NORTH DAKOTA

CITY           SKY/WX    TMP DP  RH WIND       PRES   REMARKS
BISMARCK       CLOUDY    19  17  92 SW5       30.03S FOG     WCI  12
DICKINSON      CLOUDY    25  19  78 W12       29.96F WCI  14
GARRISON         N/A     14  11  87 CALM      29.96F
HETTINGER ARPT CLOUDY    25  19  78 NW7       30.02S WCI  17
$$

NDZ004>008-012>016-024-026-027-054-230900-
NORTHEAST NORTH DAKOTA

CITY           SKY/WX    TMP DP  RH WIND       PRES   REMARKS
GRAND FORKS    CLOUDY    22  17  81 N5        30.07R WCI  16
GRND FRKS AFB  CLOUDY    22  16  79 NE6       30.06S WCI  14
DEVILS LAKE    CLOUDY    19  17  92 S8        30.02F WCI   9
$$

NDZ022-023-025-028>030-036>039-047>053-230900-
SOUTHEAST NORTH DAKOTA

CITY           SKY/WX    TMP DP  RH WIND       PRES   REMARKS
FARGO          CLOUDY    22  19  89 N8        30.04S WCI  12
JAMESTOWN      CLOUDY    20  18  92 CALM      30.03R
$$




USA.gov is the U.S. government's official web portal to all federal, state and local government web resources and services.